www.pogodaiklimat.ru

Погода и климат >> Архив погоды >> Мексика >> Парраль


ПОГОДА в Паррале

  • Прогноз погоды в Паррале
  • Монитор погоды в Паррале

АРХИВ ПОГОДЫ в Паррале

Время (UTC), дата Ветер
(напр.,м/с)
 
Видим.   Явления Облачность Т
(С)
Тd
(С)
f
(%)
Тe
(С)
Тes
(С)
Комфортность P
(гПа)
Po
(гПа)
Тmin
(С)
Tmax
(С)
R
(мм)
R24
(мм)
S
(см)
00 14.08 С 3 10 км слаб. дождь 9/9 570 м
[Cb cap]
+32.5 +13.6 32 +34 +34 очень
жарко
1006.5 826.7 +20.0 +36.0 0.0
03 14.08 штиль 0 1000 м {дождь} 4/4 1500 м
[Sc]
+25.6 +12.7 45 +27 +27 жарко 1007.5 827.8 0.0
12 14.08 С 1 8000 м 3/0 2000 м
[Ac trans]
+19.4 +14.6 74 +22 +22 комфорт 1014.9 829.8 +18.5 +36.0
15 14.08 СЗ 1 10 км 5/1 930 м
[Sc diur, vesp Ac trans]
+22.4 +14.7 62 +26 +31 жарко 1017.4 830.9
18 14.08 С 2 10 км 3/0 2000 м
[Ac trans Cs]
+29.4 +13.5 38 +31 +49 жарко 1016.8 831.0 +18.0 +29.6
21 14.08 С 2 10 км 4/3 1500 м
[Sc Ac trans]
+33.2 +11.7 27 +33 +44 жарко 1013.9 829.9
00 15.08 С 3 10 км 6/6 500 м
[Sc]
+31.7 +13.0 32 +33 +33 жарко 1009.2 827.9 +18.0 +34.6
03 15.08 СЗ 2 1000 м сильн. дождь 10/10 600 м
[Cb cap]
+22.3 +17.3 73 +27 +27 душно 1010.8 829.8 3
12 15.08 СЗ 1 8000 м 5/0 2000 м
[Ac trans Cs]
+18.6 +16.0 85 +21 +21 комфорт 1018.1 831.2 +16.0 +34.6
15 15.08 СЗ 1 10 км 8/1 800 м
[Sc diur, vesp Ac trans]
+21.8 +15.4 67 +25 +29 комфорт 1020.3 832.2
18 15.08 СЗ 1 10 км 6/4 1500 м
[Sc Ac trans]
+29.6 +11.9 34 +30 +41 жарко 1018.4 831.7 +16.0 +29.8
21 15.08 С 1 10 км 9/6 1500 м
[Sc Ac trans]
+31.2 +11.3 29 +31 +35 жарко 1013.4 829.2
00 16.08 С 1 10 км 8/6 420 м
[Cu hum Ac und]
+31.3 +13.3 33 +32 +33 жарко 1009.5 827.9 +18.0 +34.0
03 16.08 СЗ 1 1000 м 9/9 1230 м
[Sc]
+26.7 +16.6 54 +30 +30 душно 1010.9 830.1
12 16.08 СЗ 1 2000 м 8/8 540 м
[Sc]
+19.4 +15.0 76 +22 +22 комфорт 1015.0 830.1 +19.0 +34.0
15 16.08 штиль 0 10 км 8/8 840 м
[Sc]
+21.2 +14.4 65 +24 +26 комфорт 1017.5 831.1
21 16.08 ЮВ 1 10 км 8/8 960 м
[Cb cap]
+34.0 +11.7 26 +34 +38 очень
жарко
1011.0 827.6
00 17.08 ЮВ 1 10 км гроза, ливневой дождь 9/9 660 м
[Cb cap]
+33.0 +13.1 30 +34 +34 очень
жарко
1006.7 825.9 +19.0 +34.8 0.3
12 17.08 СЗ 1 2000 м 8/8 480 м
[Sc]
+17.4 +14.4 83 +18 +18 1013.2 828.0 +17.2 +34.8
15 17.08 СЗ 1 10 км 8/5 660 м
[Sc Cs]
+19.8 +14.4 71 +23 +26 комфорт 1015.6 828.5
21 17.08 С 1 10 км 4/4 450 м
[Sc]
+32.7 +14.4 33 +34 +46 очень
жарко
1011.6 827.1
00 18.08 С 1 10 км 8/5 240 м
[Sc Ac trans]
+30.8 +14.3 37 +33 +34 душно 1007.3 825.7 +17.2 +34.0
12 18.08 СЗ 1 1000 м 8/0 2000 м
[Ac trans]
+17.4 +15.6 89 +18 +18 1011.7 827.4 +17.0 +34.0
15 18.08 СЗ 1 10 км 8/0 2000 м
[Ac trans Cs]
+19.4 +15.3 77 +22 +27 комфорт 1015.1 828.7
21 18.08 С 2 10 км 3/3 1500 м
[Sc]
+30.8 +17.8 46 +35 +46 очень
душно
1013.7 828.3
00 19.08 С 1 10 км 6/1 1500 м
[Sc As trans]
+29.8 +16.9 46 +33 +35 душно 1009.8 827.0 +17.0 +32.2
12 19.08 СЗ 1 1000 м сильн. дождь 10/10 120 м
[Cb cap]
+17.8 +16.6 93 +19 +19 1019.7 830.7 +17.5 +32.2 5
15 19.08 СЗ 2 10 км {дождь} 8/5 400 м
[Sc Cs]
+19.4 +16.2 82 +22 +25 комфорт 1017.3 830.4 0.0
18 19.08 С 1 10 км 4/0 2000 м
[Ac trans Cs]
+27.8 +14.7 45 +30 +50 жарко 1015.8 829.3 +17.0 +28.0
21 19.08 С 1 10 км 5/3 1500 м
[Sc Ac trans Cs]
+30.2 +15.0 40 +33 +44 душно 1013.1 828.2
00 20.08 С 1 10 км 5/1 480 м
[Cb cap Ac trans Ci fib]
+31.6 +13.1 32 +32 +34 жарко 1008.7 826.4 +32.8
03 20.08 С 1 1000 м гроза без осадков 4/1 1200 м
[Cb cap Ac trans]
+26.4 +16.1 53 +30 +30 душно 1008.0 827.1
12 20.08 штиль 0 1000 м ясно +18.9 +15.8 82 +20 +20 1014.8 831.0 +18.6 +32.8
15 20.08 штиль 0 10 км ясно +22.0 +14.9 64 +25 +34 комфорт 1017.4 830.8
18 20.08 С 1 10 км 3/0 2000 м
[Ac trans Cs]
+28.8 +14.2 41 +31 +51 опасность
солнечного
удара
1015.1 829.4 +29.0
21 20.08 С 1 10 км 5/3 1500 м
[Sc Ac trans Cs]
+31.8 +13.8 34 +33 +45 жарко 1012.3 828.5

 

Местоположение метеостанции Парраль (Мексика): широта 26.93 долгота -105.60 высота над уровнем моря 1661 м.

В архиве по умолчанию представлена погода в Паррале за последнюю неделю. Архивные данные за месяц целиком и за предыдущие месяцы, начиная с января 2011 года, Вы можете получить, выбрав интересующий диапазон дат из раскрывающегося списка и нажав кнопку "Ввод!".


*Определитесь, кто Вы:
робот инопланетянин человек

Внимание! Время в таблицах - всемирное. Для получения местного времени необходимо прибавить поправку, которая равна -6 ч.

Смотрите также архив погоды в соседних городах и на ближайших метеорологических станциях:

Погода в Тепеуанесе (Мексика) (177 км)
Погода в Чихуахуа университете (Мексика) (193 км)
Погода в Чихуахуа (Мексика) (202 км)
Погода в Чойсе (Мексика) (259 км)
Погода в Торреоне (Мексика) (269 км)
Погода в Кульякане (Мексика) (298 км)
Погода в Темосачи (Мексика) (312 км)
Погода в Дуранго (Мексика) (336 км)
Погода в Монклове (Мексика) (417 км)
Погода в Сомбререте (Мексика) (419 км)

Пояснения к столбцам:

Ветер - указаны скорость ветра в м/с - средняя за 10 мин, порывы в срок и между сроками (в фигурных скобках) и направление, откуда дует ветер: С - северный, СВ - северо-восточный, В - восточный, ЮВ - юго-восточный, Ю - южный, ЮЗ - юго-западный, З - западный, СЗ - северо-западный.
Видимость - горизонтальная дальность видимости в метрах или километрах. При видимости от 1 до 10 км при отсутствии осадков обычно наблюдается дымка, при ухудшении видимости до 1 км и менее - туман. В сухую погоду видимость может ухудшаться дымом, пылью или мглою.
Явления - указаны атмосферные явления, наблюдавшиеся в срок или в последний час перед сроком; фигурными скобками обозначены явления, наблюдавшиеся между сроками (за 1-3 часа до срока); квадратными скобками обозначены град или гололедные отложения с указанием их диаметра в мм.
Облачность - указаны через наклонную черту общая и нижняя облачность в баллах и высота нижней границы облаков в метрах; квадратными скобками обозначены формы облаков: Ci - перистые, Cs - перисто-слоистые, Cc - перисто-кучевые, Ac - высококучевые, As - высокослоистые, Sc - слоисто-кучевые, Ns - слоисто-дождевые, Cu - кучевые, Cb - кучево-дождевые. Подробнее классификацию облаков см. в Атласе облаков (PDF).
T - Температура воздуха - температура, измеренная на высоте 2 м над землей.
Td - Температура точки росы - температура, при понижении до которой содержащийся в воздухе водяной пар достигнет насыщения.
f - Относительная влажность воздуха - влажноcть воздуха, измеренная на высоте 2 м над землей.
Te - Эффективная температура - температура, которую ощущает одетый по сезону человек в тени. Характеристика душности погоды. При расчете учитывается влияние влажности воздуха и скорости ветра на теплоощущения человека.
Tes - Эффективная температура на солнце - температура, которую ощущает человек, с поправкой на солнечный нагрев. Характеристика знойности погоды. Зависит от высоты солнца над горизонтом, облачности и скорости ветра. Ночью, в пасмурную погоду, а также при ветре 12 м/с и более поправка равна нулю.
P - Атмосферное давление - приведенное к уровню моря атмосферное давление.
Po - Атмосферное давление - измеренное на уровне метеостанции атмосферное давление.
Tmin - Минимальная температура - минимум температуры воздуха на высоте 2 м над землей.
Tmax - Максимальная температура - максимум температуры воздуха на высоте 2 м над землей.
R - Количество осадков - Количество выпавших осадков за период времени, мм. При наведении курсора мыши на число - период времени, за который выпало указанное количество осадков.
R24 - Количество осадков - Количество выпавших осадков за 24 часа, мм.
S - Снежный покров - Высота снежного покрова, см. При наведении курсора мыши на число - состояние снежного покрова и степень покрытия местности в баллах.